sat.trackr.live / text

‹ back to catalog

TRANSPORTER-14 OBJECT D

NORAD 64531 · 2025-135D

PAYLOAD ACTIVE UNKNOWN

§ Identity

Operator
Country
TBD
Launch date
2025-06-23
Launch site
AFWTR
Launch vehicle
Mass (kg)
RCS (m²)

External: N2YO · Heavens-Above · Gunter

§ Orbital elements

Epoch: 2026-05-25T04:17:15.530208Z

Period
94.39 min
Inclination
97.4689°
Eccentricity
0.0003479
Mean motion
15.25647391 rev/d
Perigee alt
486.5 km
Apogee alt
491.2 km
Semi-major
6,867.0 km
B*
4.2210e-4
RAAN
261.3903°
Arg perigee
233.0870°
Mean anomaly
127.0050°
Rev number
5,141

§ Raw data

TRANSPORTER-14 OBJECT D1 64531U 25135D   26145.17865197  .00010673  00000+0  42210-3 0  99952 64531  97.4689 261.3903 0003479 233.0870 127.0050 15.25647391 51413

JSON: /api/v1/satellites/64531 · /tle

For live sub-satellite position, see the globe view (requires WebGL).

§ Visibility from observer

Set your observer location to see the next 7 days of passes ≥ 10°. The values pass through the URL so the page stays shareable.

No JS? Fill the form by hand. The geolocation button needs JavaScript.